When you browse on this site, cookies collect data to enhance your experience and personalize the content and advertising you see.
Visit our Privacy Policy to learn more. By continuing to use the site, you agree to this use of cookies and data.
  • In Schweiz
  • Länderverzeichnis
  • Für 7 Tage
  • Wassertemperatur
  • Wetterkarte
  • Widgets
  • user-avatar
    Anmelden

    Stündliche Wetter Abowian

    Heute, 16 Oktober, Mittwoch

    Zeit Temperatur Niederschläge Wind Luftdruck Luftfeuchtigkeit
    00:00 +14°C° 0 mm 1 m/S 675 mmHg 32%
    01:00 +14°C° 0 mm 1 m/S 675 mmHg 33%
    02:00 +14°C° 0 mm 1 m/S 674 mmHg 34%
    03:00 +13°C° 0 mm 1 m/S 675 mmHg 35%
    04:00 +13°C° 0 mm 1 m/S 674 mmHg 35%
    05:00 +12°C° 0 mm 1 m/S 674 mmHg 35%
    06:00 +12°C° 0 mm 1 m/S 674 mmHg 36%
    07:00 +15°C° 0 mm 1 m/S 675 mmHg 29%
    08:00 +19°C° 0 mm 1 m/S 676 mmHg 23%
    09:00 +22°C° 0 mm 1 m/S 677 mmHg 17%
    10:00 +23°C° 0 mm 1 m/S 677 mmHg 16%
    11:00 +24°C° 0 mm 1 m/S 677 mmHg 14%
    12:00 +26°C° 0 mm 1 m/S 677 mmHg 13%
    13:00 +26°C° 0 mm 1 m/S 676 mmHg 13%
    14:00 +26°C° 0 mm 1 m/S 676 mmHg 12%
    15:00 +27°C° 0 mm 1 m/S 676 mmHg 12%
    16:00 +24°C° 0 mm 1 m/S 675 mmHg 16%
    17:00 +21°C° 0 mm 1 m/S 675 mmHg 20%
    18:00 +18°C° 0 mm 1 m/S 674 mmHg 24%
    19:00 +18°C° 0 mm 1 m/S 674 mmHg 24%
    20:00 +18°C° 0 mm 1 m/S 675 mmHg 24%
    21:00 +16°C° 0 mm 2 m/S 675 mmHg 24%
    22:00 +16°C° 0 mm 1 m/S 675 mmHg 27%
    23:00 +15°C° 0 mm 1 m/S 675 mmHg 30%

    Morgen, 17 Oktober, Donnerstag

    Zeit Temperatur Niederschläge Wind Luftdruck Luftfeuchtigkeit
    00:00 +15°C° 0 mm 1 m/S 675 mmHg 33%
    01:00 +14°C° 0 mm 1 m/S 675 mmHg 34%
    02:00 +14°C° 0 mm 1 m/S 675 mmHg 35%
    03:00 +14°C° 0 mm 1 m/S 675 mmHg 36%
    04:00 +13°C° 0 mm 1 m/S 675 mmHg 36%
    05:00 +13°C° 0 mm 1 m/S 675 mmHg 37%
    06:00 +12°C° 0 mm 1 m/S 675 mmHg 37%
    07:00 +15°C° 0 mm 1 m/S 676 mmHg 31%
    08:00 +19°C° 0 mm 1 m/S 676 mmHg 24%
    09:00 +22°C° 0 mm 1 m/S 677 mmHg 18%
    10:00 +23°C° 0 mm 1 m/S 677 mmHg 16%
    11:00 +24°C° 0 mm 2 m/S 677 mmHg 15%
    12:00 +26°C° 0 mm 2 m/S 677 mmHg 14%
    13:00 +26°C° 0 mm 2 m/S 677 mmHg 13%
    14:00 +26°C° 0 mm 2 m/S 677 mmHg 13%
    15:00 +27°C° 0 mm 2 m/S 676 mmHg 13%
    16:00 +24°C° 0 mm 1 m/S 676 mmHg 15%
    17:00 +21°C° 0 mm 1 m/S 675 mmHg 18%
    18:00 +19°C° 0 mm 1 m/S 675 mmHg 21%
    19:00 +19°C° 0 mm 1 m/S 675 mmHg 22%
    20:00 +18°C° 0 mm 1 m/S 675 mmHg 22%
    21:00 +18°C° 0 mm 1 m/S 675 mmHg 23%
    22:00 +16°C° 0 mm 1 m/S 675 mmHg 24%
    23:00 +16°C° 0 mm 1 m/S 675 mmHg 26%

    übermorgen, 18 Oktober, Freitag

    Zeit Temperatur Niederschläge Wind Luftdruck Luftfeuchtigkeit
    00:00 +15°C° 0 mm 1 m/S 674 mmHg 27%
    01:00 +15°C° 0 mm 1 m/S 674 mmHg 27%
    02:00 +15°C° 0 mm 1 m/S 674 mmHg 27%
    03:00 +14°C° 0 mm 1 m/S 674 mmHg 27%
    04:00 +14°C° 0 mm 1 m/S 674 mmHg 26%
    05:00 +14°C° 0 mm 1 m/S 674 mmHg 25%
    06:00 +14°C° 0 mm 1 m/S 674 mmHg 24%
    07:00 +18°C° 0 mm 1 m/S 674 mmHg 22%
    08:00 +20°C° 0 mm 1 m/S 675 mmHg 20%
    09:00 +23°C° 0 mm 1 m/S 676 mmHg 18%
    10:00 +24°C° 0 mm 1 m/S 675 mmHg 17%
    11:00 +25°C° 0 mm 2 m/S 675 mmHg 17%
    12:00 +26°C° 0 mm 2 m/S 675 mmHg 16%
    13:00 +27°C° 0 mm 2 m/S 675 mmHg 17%
    14:00 +27°C° 0 mm 2 m/S 674 mmHg 18%
    15:00 +27°C° 0 mm 2 m/S 674 mmHg 19%
    16:00 +25°C° 0.1 mm 1 m/S 674 mmHg 23%
    17:00 +22°C° 0.1 mm 1 m/S 673 mmHg 28%
    18:00 +18°C° 0.1 mm 0 m/S 673 mmHg 32%
    19:00 +19°C° 0.1 mm 1 m/S 673 mmHg 35%
    20:00 +19°C° 0.1 mm 1 m/S 673 mmHg 38%
    21:00 +18°C° 0.1 mm 2 m/S 673 mmHg 42%
    22:00 +18°C° 0 mm 1 m/S 673 mmHg 44%
    23:00 +18°C° 0 mm 1 m/S 673 mmHg 46%

    19 Oktober, Samstag

    Zeit Temperatur Niederschläge Wind Luftdruck Luftfeuchtigkeit
    00:00 +16°C° 0 mm 1 m/S 673 mmHg 48%
    01:00 +16°C° 0 mm 1 m/S 673 mmHg 49%
    02:00 +15°C° 0 mm 1 m/S 673 mmHg 49%
    03:00 +15°C° 0 mm 1 m/S 673 mmHg 50%
    04:00 +15°C° 0 mm 1 m/S 673 mmHg 49%
    05:00 +15°C° 0 mm 1 m/S 673 mmHg 48%
    06:00 +15°C° 0 mm 1 m/S 673 mmHg 46%
    07:00 +18°C° 0 mm 1 m/S 673 mmHg 41%
    08:00 +20°C° 0 mm 1 m/S 674 mmHg 36%
    09:00 +22°C° 0 mm 1 m/S 674 mmHg 31%
    10:00 +24°C° 0 mm 1 m/S 674 mmHg 29%
    11:00 +25°C° 0 mm 1 m/S 674 mmHg 27%
    12:00 +26°C° 0 mm 2 m/S 675 mmHg 25%
    13:00 +26°C° 0 mm 2 m/S 674 mmHg 25%
    14:00 +27°C° 0 mm 2 m/S 674 mmHg 25%
    15:00 +27°C° 0 mm 2 m/S 673 mmHg 25%
    16:00 +25°C° 0.2 mm 1 m/S 673 mmHg 31%
    17:00 +22°C° 0.2 mm 1 m/S 673 mmHg 37%
    18:00 +18°C° 0.2 mm 0 m/S 673 mmHg 43%
    19:00 +20°C° 0.1 mm 1 m/S 673 mmHg 44%
    20:00 +20°C° 0.1 mm 1 m/S 673 mmHg 46%
    21:00 +19°C° 0.1 mm 1 m/S 674 mmHg 47%
    22:00 +19°C° 0 mm 1 m/S 674 mmHg 48%
    23:00 +19°C° 0 mm 1 m/S 674 mmHg 49%

    20 Oktober, Sonntag

    Zeit Temperatur Niederschläge Wind Luftdruck Luftfeuchtigkeit
    00:00 +19°C° 0 mm 1 m/S 674 mmHg 50%
    01:00 +18°C° 0 mm 1 m/S 674 mmHg 51%
    02:00 +18°C° 0 mm 1 m/S 674 mmHg 53%
    03:00 +18°C° 0 mm 1 m/S 674 mmHg 54%
    04:00 +18°C° 0 mm 1 m/S 674 mmHg 54%
    05:00 +18°C° 0 mm 1 m/S 674 mmHg 55%
    06:00 +18°C° 0 mm 1 m/S 674 mmHg 56%
    07:00 +19°C° 0 mm 1 m/S 675 mmHg 52%
    08:00 +20°C° 0 mm 1 m/S 675 mmHg 49%
    09:00 +22°C° 0 mm 1 m/S 675 mmHg 45%
    10:00 +23°C° 0.1 mm 1 m/S 675 mmHg 43%
    11:00 +23°C° 0.1 mm 1 m/S 675 mmHg 40%
    12:00 +24°C° 0.1 mm 2 m/S 675 mmHg 38%
    13:00 +25°C° 0.2 mm 2 m/S 675 mmHg 37%
    14:00 +25°C° 0.2 mm 2 m/S 674 mmHg 36%
    15:00 +25°C° 0.2 mm 2 m/S 674 mmHg 35%
    16:00 +23°C° 0.1 mm 2 m/S 674 mmHg 41%
    17:00 +21°C° 0.1 mm 2 m/S 674 mmHg 46%
    18:00 +19°C° 0.1 mm 2 m/S 674 mmHg 52%
    19:00 +19°C° 0.1 mm 2 m/S 674 mmHg 54%
    20:00 +18°C° 0.1 mm 2 m/S 674 mmHg 56%
    21:00 +18°C° 0.1 mm 2 m/S 675 mmHg 58%
    22:00 +17°C° 0.1 mm 2 m/S 675 mmHg 60%
    23:00 +17°C° 0.1 mm 2 m/S 675 mmHg 62%

    21 Oktober, Montag

    Zeit Temperatur Niederschläge Wind Luftdruck Luftfeuchtigkeit
    00:00 +16°C° 0.1 mm 2 m/S 675 mmHg 64%
    01:00 +16°C° 0 mm 2 m/S 674 mmHg 66%
    02:00 +15°C° 0 mm 2 m/S 674 mmHg 69%
    03:00 +15°C° 0 mm 2 m/S 674 mmHg 71%
    04:00 +14°C° 0 mm 2 m/S 674 mmHg 72%
    05:00 +14°C° 0 mm 1 m/S 674 mmHg 73%
    06:00 +13°C° 0 mm 1 m/S 674 mmHg 74%
    07:00 +15°C° 0 mm 1 m/S 675 mmHg 68%
    08:00 +18°C° 0 mm 1 m/S 675 mmHg 61%
    09:00 +19°C° 0 mm 1 m/S 675 mmHg 55%
    10:00 +20°C° 0.2 mm 1 m/S 675 mmHg 52%
    11:00 +21°C° 0.2 mm 1 m/S 675 mmHg 50%
    12:00 +22°C° 0.2 mm 1 m/S 675 mmHg 47%
    13:00 +23°C° 0.5 mm 2 m/S 675 mmHg 46%
    14:00 +23°C° 0.5 mm 2 m/S 675 mmHg 45%
    15:00 +23°C° 0.5 mm 2 m/S 674 mmHg 44%
    16:00 +21°C° 0.4 mm 2 m/S 674 mmHg 48%
    17:00 +19°C° 0.4 mm 2 m/S 674 mmHg 52%
    18:00 +18°C° 0.4 mm 3 m/S 674 mmHg 56%
    19:00 +17°C° 0.1 mm 3 m/S 674 mmHg 58%
    20:00 +17°C° 0.1 mm 2 m/S 674 mmHg 60%
    21:00 +16°C° 0.1 mm 2 m/S 674 mmHg 63%
    22:00 +16°C° 0 mm 2 m/S 674 mmHg 64%
    23:00 +15°C° 0 mm 2 m/S 674 mmHg 65%
    Mehr zeigen